Simultaneous Nadir Overpasses (SNOs) Predictions

Prediction of SNOs between GOES-14 and NPP Satellite Orbit:

Table of predicted SNOs for the next 14.0 days since TLE Epoch: 3/2/2024
Index Date Time (GOES-14) GOES-14 Lat,Lon NPP Lat,Lon Distance(km) Time Diff (sec)
1 03/02/2024 08:45:58 0.08,-108.37 0.36,-109.75 156.10 80
2 03/03/2024 08:24:32 0.07,-108.37 -0.65,-105.21 360.75 80
3 03/04/2024 20:46:26 -0.08,-108.40 -0.56,-110.50 240.04 80
4 03/05/2024 20:30:21 -0.08,-108.40 0.46,-105.97 276.91 80
5 03/07/2024 08:52:07 0.09,-108.38 0.73,-111.23 324.84 80
6 03/08/2024 08:30:42 0.09,-108.38 -0.30,-106.70 191.79 80
7 03/09/2024 20:52:36 -0.10,-108.40 -0.91,-111.99 409.46 80
8 03/10/2024 20:36:31 -0.10,-108.40 0.12,-107.46 107.64 80
9 03/12/2024 08:58:17 0.10,-108.39 1.06,-112.72 493.28 80
10 03/13/2024 08:36:51 0.10,-108.39 0.03,-108.19 23.57 80
11 03/15/2024 20:39:59 -0.10,-108.40 -0.25,-108.93 61.45 80
